Weather in Tabarka

Tunisia     36°57′03″N   8°45′28″E
temp.,
°C
wind,
m/s
gust,
m/s
humid.,
%
clouds,
%
prec.,
mm/h
press.,
hPa
HPBL,
m
7 march, sun
sun701:00+13s22801 0.1 102229
04:00+13s22780 0.0 102037
07:00+12sse237722 0.0 102046
10:00+17se2271100 0.0 1019170
13:00+19sse2462100 0.1 1018679
16:00+20se246295 0.3 1015751
19:00+16se5106797 0.8 1015160
22:00+14sw237598 0.4 101627
8 march, mon
mon801:00+13se447897 0.4 101573
04:00+13ssw228082 0.0 101354
07:00+12s228052 0.0 101367
10:00+15nw11690 0.0 1013304
13:00+16n32700 0.1 1012337
16:00+16n22731 0.5 1010263
19:00+13nnw11871 0.6 101223
22:00+13sw228599 0.0 101356
9 march, tue
tue901:00+13sw3486100 0.0 1013137
04:00+13wsw3687100 0.1 1012452
07:00+13sw2290100 0.3 1013188
10:00+14wsw3685100 0.5 1014623
13:00+14w3582100 0.9 1014460
16:00+15w61081100 0.7 1013733
19:00+13nw6888100 1.3 1015605
22:00+13wnw688575 1.0 1018615
10 march, wed
wed1001:00+12wnw688359 1.5 1018626
04:00+12wnw798582 0.9 1018647
07:00+12nw688483 2.5 1020666
10:00+13nw677033 0.3 10221148
13:00+14nw787025 0.4 10221231
16:00+13nw78699 0.3 10221192
19:00+12nw68716 0.3 1024804
22:00+12wnw687331 0.0 1027830
11 march, thu
thu1101:00+12nw677058 0.1 1027912
04:00+12nw556796 0.1 1026789
07:00+11w347075 0.1 1027646
10:00+12wsw337150 0.0 1028590
13:00+13nnw337035 0.0 1028496
16:00+13nne336731 0.0 1026505
19:00+11e227317 0.0 1027336
22:00+10se33811 0.0 1028135